Home > Weather > Kilgore > Past weeks

Flag for USA Past Weather in Kilgore, Texas, USA — Yesterday and Last 2 Weeks

Now
66 °F

Light rain. Partly sunny.


Feels Like: 66 °F
Forecast: 72 / 78 °F
Wind: 3 mph from Southeast

Location: Gregg County Airport

Current Time: May 27, 2016 at 3:08:35 PM

Latest Report: May 27, 2016 at 1:53 PM


Visibility: 10 mi

Pressure: 29.83 "Hg

Humidity: 100%

Dew Point: 66 °F

Location of KilgoreLocation

Past Weather in Kilgore — Graph

°F

Kilgore Temperature Yesterday

Maximum temperature yesterday: 79 °F (at 10:53 AM)
Minimum temperature yesterday: 69 °F (at 11:53 PM)
Average temperature yesterday: 74 °F

High & Low Weather Summary for the Past Weeks

 TemperatureHumidityPressure
High87 °F (May 25, 12:53 PM)100% (May 26, 1:53 PM)30.20 "Hg (May 26, 1:53 PM)
Low58 °F (May 19, 3:53 AM)31% (May 13, 4:53 PM)29.74 "Hg (May 27, 6:53 AM)
Average71 °F79%29.99 "Hg
* Reported May 12 1:53 PM — May 27 1:53 PM, Kilgore, Weather by CustomWeather, © 2016

Note: Actual official high and low records may vary slightly from our data, if they occured in-between our weather recording intervals... More about our weather records

Advertising

Kilgore Weather History for the Previous 24 Hours

Scroll right to see more
 ConditionsComfort  
Time TempWeatherWind HumidityBarometerVisibility
1:53 PM
Fri, May 27
66 °FLight rain. Partly sunny.3 mph100%29.83 "Hg10 mi
12:53 PM66 °FThunderstorms. Fog.5 mph100%29.90 "Hg3 mi
11:53 AM67 °FThunderstorms. Fog.5 mph97%29.88 "Hg3 mi
10:53 AM67 °FHeavy rain. Fog.5 mph100%29.87 "Hg3 mi
9:53 AM68 °FRain. Fog.7 mph93%29.87 "Hg3 mi
8:53 AM68 °FPartly sunny.8 mph96%29.83 "Hg10 mi
7:53 AM68 °FPartly sunny.14 mph93%29.83 "Hg10 mi
6:53 AM68 °FThunderstorms. Passing clouds.18 mph96%29.74 "Hg10 mi
5:53 AM68 °FRain. Overcast.16 mph96%29.77 "Hg10 mi
4:53 AM69 °FLight rain. Partly cloudy.15 mph96%29.78 "Hg10 mi
3:53 AM69 °FThundershowers. Partly cloudy.7 mph93%29.81 "Hg10 mi
2:53 AM69 °FPassing clouds.6 mph90%29.84 "Hg10 mi
1:53 AM70 °FPassing clouds.9 mph87%29.80 "Hg10 mi
12:53 AM72 °FPassing clouds.12 mph84%29.77 "Hg10 mi
11:53 PM
Thu, May 26
69 °FPassing clouds.6 mph90%29.80 "Hg10 mi
10:53 PM71 °FClear.8 mph81%29.80 "Hg10 mi
9:53 PM71 °FClear.9 mph81%29.76 "Hg10 mi
8:53 PM71 °FSunny.17 mph87%29.75 "Hg10 mi
7:53 PM72 °FPassing clouds.23 mph91%29.79 "Hg10 mi
6:53 PM72 °FLight rain. Scattered clouds.29 mph93%29.78 "Hg10 mi
5:55 PM74 °FRain. Partly sunny.22 mph97%29.85 "Hg7 mi
4:53 PM70 °FThunderstorms. Fog.12 mph100%29.90 "Hg4 mi
3:56 PM70 °FThunderstorms. Fog.5 mph97%29.94 "Hg4 mi
3:03 PM75 °FThunderstorms. Fog.10 mph100%29.96 "Hg2 mi
Weather by CustomWeather, © 2016

See weather overviewHow to use our weather pages